{"data":{"norad_id":67014,"intl_designator":"2025-293M","name":"STARLINK-36207","alt_names":[],"object_type":"PAYLOAD","status":"ACTIVE","operator":null,"country":"US","launch_date":"2025-12-10","launch_site_code":"AFWTR","launch_vehicle":null,"mission":null,"orbit_class":"UNKNOWN","rcs_meters":null,"size_class":null,"mass_kg":null,"dimensions":null,"purposes":["comms"],"wikipedia_slug":null,"has_3d_model":false,"image_url":null,"decayed_at":null,"tle_current":{"epoch":"2026-05-25T01:08:23.928288Z","epoch_age_seconds":85087,"freshness":"FRESH","line1":"1 67014U 25293M   26145.04749917  .00003064  00000+0  26440-3 0  9999","line2":"2 67014  70.0004 262.0014 0003127 268.4957  91.5844 14.98335330 26323","mean_motion":14.9833533,"eccentricity":0.0003127,"inclination_deg":70.0004,"raan_deg":262.0014,"arg_perigee_deg":268.4957,"mean_anomaly_deg":91.5844,"bstar":0.0002644,"rev_number":2632,"period_min":96.106657246079,"perigee_km":569.86608824504,"apogee_km":574.21272857086,"semimajor_km":6950.176408408,"source":"CELESTRAK","updated_at":"2026-05-25T13:38:21.431884Z"}}}